Temperature
15 15 15 15 15 15 16 16 16 16 16 16 17 17 17 17 17 17 17 18 18 18 18 18 18 18 18 18 18 18 18 18 18 18 18 18 18 18 18 18 18 18 18
15 15 15 15 15 15 15 16 16 16 16 16 17 17 17 17 17 17 17 18 18 18 18 18 18 18 18 18 18 18 18 18 18 18 18 18 18 18 18 18 18 17 17
15 15 15 15 15 15 15 15 15 16 16 16 16 16 17 17 17 17 17 17 18 18 18 18 18 18 18 18 18 18 18 18 18 18 18 18 18 18 18 18 18 17 17
14 14 14 15 15 15 15 15 15 15 15 16 16 16 17 17 17 17 17 17 17 18 18 18 18 18 18 18 18 18 18 18 18 18 18 18 18 18 18 18 18 17 17
14 14 14 14 14 14 14 15 15 15 15 15 16 16 16 17 17 17 17 17 17 18 18 18 18 18 18 18 18 18 18 18 18 18 18 18 18 18 18 18 18 17 17
14 14 14 14 14 14 14 14 14 15 15 15 15 16 16 16 17 17 17 17 17 17 18 18 18 18 18 18 18 18 18 18 18 18 18 18 18 18 18 18 18 17 17
13 13 13 14 14 14 14 14 14 14 15 15 15 16 16 16 16 17 17 17 17 17 17 17 17 17 18 18 18 18 18 18 18 18 18 18 18 18 18 18 18 17 17
13 13 13 13 13 14 14 14 14 14 14 15 15 15 16 16 16 16 16 17 17 17 17 17 17 17 17 18 18 18 18 18 18 18 18 18 17 17 17 17 17 17 17
13 13 13 13 13 13 13 13 14 14 14 14 15 15 15 15 16 16 16 16 17 17 17 17 17 17 17 17 17 18 18 18 18 18 18 18 17 17 17 17 17 17 17
13 13 13 13 13 13 13 13 13 13 14 14 14 14 15 15 15 16 16 16 16 16 17 17 17 17 17 17 17 17 17 17 17 17 18 18 17 17 17 17 17 17 17
13 13 13 13 13 13 13 13 13 13 13 14 14 14 14 15 15 15 15 16 16 16 16 16 16 17 17 17 17 17 17 17 17 17 17 17 17 17 17 17 17 17 17
14 13 13 13 13 13 13 13 13 13 13 13 14 14 14 14 15 15 15 15 16 16 16 16 16 16 16 17 17 17 17 17 17 17 17 17 17 17 17 17 17 17 17
14 13 13 13 13 13 13 13 13 13 13 13 13 13 14 14 14 14 14 15 15 16 16 16 16 16 16 16 16 16 16 17 17 17 17 17 17 17 17 17 17 17 17
14 13 13 13 13 13 13 13 13 13 13 13 13 13 13 13 14 14 14 14 15 15 15 16 16 15 15 16 16 16 16 16 16 17 17 17 17 17 17 17 17 17 17
14 13 13 13 13 13 13 13 13 13 13 13 13 13 13 13 13 13 14 14 14 14 15 15 15 15 15 15 15 15 15 16 16 16 16 17 17 17 17 17 17 17 17
14 13 13 13 13 13 13 13 13 13 13 13 13 13 13 13 13 13 13 13 13 14 14 14 15 15 15 15 14 15 15 15 15 16 16 16 16 17 17 17 17 17 17
14 14 13 13 13 13 13 13 13 13 13 13 13 13 13 13 13 13 13 13 13 13 14 14 14 14 14 14 14 14 14 15 15 15 15 16 16 16 16 17 17 17 17
14 14 14 14 14 13 13 13 13 13 13 13 13 13 13 13 13 13 13 13 13 13 13 13 14 14 14 14 14 14 14 14 15 15 15 15 15 16 16 16 16 16 16
14 14 14 14 14 14 13 13 13 13 13 13 13 13 13 13 13 13 12 13 13 13 13 13 13 13 13 13 13 14 14 14 14 14 14 15 15 15 15 16 16 16 16
15 14 14 14 14 14 14 14 13 13 13 13 13 13 13 13 13 13 12 12 12 13 13 13 13 13 13 13 13 13 13 14 14 14 14 14 14 15 15 15 15 16 16
15 15 14 14 14 14 14 14 14 13 13 13 13 13 13 13 13 13 13 13 12 12 12 12 13 13 13 13 13 13 13 13 13 14 14 14 14 14 15 15 15 15 15
15 15 15 14 14 14 14 14 14 14 13 13 13 13 13 13 13 13 13 13 13 12 12 12 12 12 12 12 12 13 13 13 13 13 13 14 14 14 14 14 14 15 15
15 15 15 14 14 14 14 14 14 14 14 13 13 13 13 13 13 13 13 12 12 12 12 12 12 12 12 12 12 12 12 12 13 13 13 13 14 14 14 14 14 14 14
15 15 15 15 15 14 14 14 14 14 14 14 13 13 13 13 13 13 12 12 12 12 12 12 12 12 12 12 12 12 12 12 13 13 12 13 13 13 13 13 13 14 14
15 15 15 15 15 14 14 14 14 14 14 14 14 13 13 13 13 13 13 12 12 12 12 12 12 12 12 12 12 12 12 12 12 12 12 12 13 13 13 13 13 13 13
15 15 15 15 14 14 14 14 14 14 14 14 13 13 13 13 13 13 13 12 12 12 12 12 12 12 12 12 12 12 12 12 11 12 12 12 12 12 12 13 13 13 13
Wind_Speed
2 3 2 1 2 2 1 1 2 2 3 2 3 3 3 3 4 3 6 10 10 9 9 9 8 9 8 8 9 9 8 8 8 8 9 9 10 10 11 12 12 12 11
2 2 3 2 2 1 1 1 2 1 2 2 2 3 3 3 4 4 5 8 10 10 10 10 10 10 9 9 9 9 9 9 9 9 9 10 10 11 12 12 12 12 12
4 2 3 3 2 2 1 1 2 1 2 2 2 3 3 2 2 3 4 6 8 9 11 11 10 9 10 9 9 9 9 10 10 10 10 11 11 12 12 12 12 12 12
8 3 3 3 3 3 1 1 0 1 1 1 1 2 2 2 2 2 3 4 6 7 10 12 11 10 11 11 10 10 10 10 10 10 10 11 12 12 13 13 12 12 12
9 4 3 3 3 3 3 3 2 1 1 1 2 2 2 2 2 3 2 2 4 6 8 11 13 12 11 11 11 11 11 11 11 11 11 12 13 13 12 12 12 12 12
7 5 4 4 4 3 3 3 2 1 1 1 3 2 2 2 2 2 2 2 2 4 7 8 10 10 12 12 12 11 12 12 12 12 12 13 13 13 13 13 13 12 12
6 4 4 4 4 3 3 3 2 2 2 1 1 2 1 2 2 2 2 2 2 2 4 7 8 9 10 12 13 12 12 12 12 12 13 13 13 13 13 13 13 13 13
6 6 5 4 3 3 4 3 3 2 2 1 1 1 1 1 1 2 2 2 2 1 2 4 6 7 9 10 11 13 13 13 13 13 13 14 14 14 14 13 13 13 13
3 4 5 5 4 3 3 3 3 2 2 2 1 1 1 0 1 1 2 2 1 1 1 1 2 5 7 9 10 13 13 13 13 13 13 14 15 15 15 14 14 14 14
3 3 4 4 4 4 4 4 4 3 2 2 2 2 1 1 0 1 1 0 1 2 1 1 2 3 5 6 9 12 13 12 12 12 13 13 15 16 16 16 15 15 15
2 2 2 3 3 3 3 3 3 2 2 2 2 2 2 2 2 1 1 1 1 1 1 0 1 1 3 5 6 9 12 12 11 11 11 12 14 15 16 16 16 16 16
1 3 1 3 3 3 3 3 3 2 1 2 2 2 2 2 2 2 1 1 1 1 1 0 0 1 3 5 6 7 9 10 10 10 10 11 12 14 15 16 17 17 17
1 3 3 3 3 3 2 2 3 2 1 1 1 2 2 2 2 2 1 1 1 2 0 1 1 1 2 5 6 7 7 9 9 9 9 10 11 12 14 16 17 18 18
2 2 2 2 2 3 3 3 2 3 3 2 2 2 1 1 2 1 1 1 2 2 1 0 1 1 2 5 5 6 7 10 9 9 9 10 11 12 13 14 16 17 18
1 2 1 0 1 1 2 3 2 3 4 3 3 3 3 2 2 2 2 1 1 1 1 1 1 1 1 3 4 4 4 8 10 10 11 11 11 12 13 13 15 16 17
2 0 2 1 1 1 1 2 2 2 2 1 1 1 0 1 2 2 1 1 0 1 1 2 1 0 0 0 3 4 4 8 10 11 12 12 12 12 13 14 15 16 17
2 2 0 2 1 1 2 2 1 2 3 2 1 1 1 1 1 2 2 1 1 0 1 3 2 2 1 1 0 2 3 5 8 11 12 13 13 13 13 14 15 16 17
1 1 2 1 1 1 2 2 1 1 1 2 2 2 1 2 1 1 1 2 1 1 1 2 3 2 2 2 1 2 3 5 5 9 13 14 14 14 14 15 16 16 17
2 2 3 2 1 1 1 1 1 1 1 1 0 1 2 2 1 1 0 1 2 1 0 1 3 2 2 2 1 3 4 3 4 6 9 12 14 14 15 15 16 17 17
3 2 1 1 1 1 1 1 1 1 2 1 1 1 1 2 3 3 2 3 2 2 2 2 2 2 2 2 1 2 3 3 3 3 4 7 10 13 15 16 16 17 18
3 3 2 2 0 1 1 3 4 3 3 3 1 1 3 5 4 2 2 2 3 2 2 2 2 2 2 2 1 1 2 3 4 3 2 3 3 4 7 12 15 17 18
3 2 2 2 1 1 5 4 2 4 5 3 2 1 4 5 4 3 2 2 1 1 2 2 2 3 3 2 1 2 2 2 3 2 2 4 3 4 4 6 11 14 16
4 3 3 3 3 3 6 5 3 2 5 5 4 1 0 3 4 2 3 4 5 5 5 2 3 3 3 3 2 2 2 3 3 3 2 4 4 5 5 7 10 12 14
5 5 5 4 4 5 9 8 6 4 5 6 4 2 1 2 2 1 1 2 3 3 5 4 3 3 2 2 2 2 3 4 5 5 3 4 4 4 5 4 9 10 12
6 5 5 6 6 5 9 10 7 4 5 6 4 2 2 3 3 2 2 3 3 3 4 5 6 6 7 6 3 2 3 3 4 4 2 2 3 3 4 4 5 8 10
5 4 5 6 7 6 9 11 9 4 5 4 3 3 4 5 5 3 0 2 3 4 4 3 4 6 6 6 7 4 3 3 3 3 2 1 2 2 3 3 2 3 5
Wind_Direction
332 339 315 318 302 311 240 223 239 238 241 233 213 215 242 227 221 207 161 162 170 177 180 181 176 176 178 179 179 181 177 172 171 170 164 161 159 155 151 148 144 142 139
337 353 356 349 322 317 319 304 259 221 234 225 231 212 225 233 222 213 181 176 179 181 182 182 180 182 182 182 182 181 179 176 175 172 167 165 163 159 156 153 151 150 147
0 17 1 352 331 328 336 323 323 320 249 237 240 237 219 255 238 223 203 179 181 190 187 183 182 183 185 184 185 183 180 177 177 174 172 170 167 165 162 159 158 156 154
4 10 7 339 341 349 350 310 304 330 302 278 260 252 227 231 244 247 236 186 177 185 189 188 183 183 187 191 190 185 181 179 178 177 176 173 170 168 165 164 165 162 160
359 5 355 335 358 356 358 342 30 357 323 293 264 240 220 203 241 254 262 221 181 168 174 184 184 184 187 190 191 187 183 182 181 180 178 177 173 172 170 170 169 167 167
360 1 350 7 8 1 355 354 5 339 313 274 281 269 227 207 219 235 248 242 200 166 163 173 176 185 188 188 189 186 184 182 185 185 184 181 176 175 175 176 176 175 175
8 1 4 5 6 351 2 358 2 356 346 332 350 327 288 230 215 221 216 220 228 169 157 169 175 179 185 193 190 187 188 186 187 188 189 186 183 181 181 183 184 184 184
19 3 12 0 358 1 11 358 14 12 351 359 45 14 353 339 300 233 205 193 204 157 163 182 179 184 184 178 191 191 191 190 190 191 191 190 188 187 188 190 192 192 192
43 15 2 357 357 19 13 8 28 12 359 342 31 83 70 281 298 282 220 173 164 182 169 187 179 175 175 171 180 191 192 193 195 196 198 197 196 193 194 197 199 200 200
72 42 0 354 357 15 17 5 37 8 16 357 349 4 28 48 72 312 322 355 165 175 199 196 181 165 161 164 162 176 185 190 195 200 203 202 201 202 202 203 205 205 206
101 86 13 342 348 21 22 16 21 20 24 16 349 348 358 4 359 81 27 338 334 275 209 216 181 139 130 137 145 164 178 188 197 205 208 208 208 209 209 209 209 210 211
116 96 24 344 6 31 20 6 357 22 41 14 350 6 24 25 4 22 20 332 318 290 232 199 211 163 130 121 127 143 175 185 195 207 213 216 217 217 217 217 216 216 216
84 69 32 12 23 16 2 3 345 348 44 33 25 27 8 352 12 20 25 350 334 298 292 233 203 165 127 130 126 148 180 191 197 208 217 221 223 224 224 226 225 223 221
73 72 42 30 27 0 1 16 350 356 23 22 26 26 340 351 18 29 57 22 341 320 309 276 76 132 99 114 137 169 196 201 202 210 220 228 230 231 230 231 233 233 230
84 70 26 246 112 11 357 18 8 24 12 31 25 15 11 353 13 28 37 43 72 355 320 355 40 67 105 112 148 208 217 206 210 216 222 228 232 235 236 235 236 236 235
61 34 304 296 154 175 108 58 14 22 7 21 184 173 323 3 15 359 350 334 65 126 299 325 305 292 59 206 198 230 236 215 222 226 228 229 232 236 238 238 237 236 237
219 184 203 334 1 56 82 81 3 22 359 349 355 79 91 99 40 341 346 345 333 130 260 304 327 338 336 307 220 276 272 240 239 232 227 229 233 236 240 241 239 237 236
286 163 131 300 328 54 72 75 347 341 327 341 348 13 25 77 67 343 1 340 315 263 213 286 312 327 325 312 292 276 271 263 252 232 227 230 234 237 241 242 241 239 237
227 244 168 207 218 109 147 194 218 274 276 248 276 25 29 57 20 6 6 310 307 311 268 268 287 301 295 295 317 297 287 284 278 251 235 236 238 239 241 242 242 241 240
192 261 266 217 192 107 38 356 357 346 313 300 173 147 108 69 45 16 5 355 350 351 335 304 285 288 286 287 280 281 302 301 293 293 279 259 246 241 241 242 244 243 242
207 189 242 269 256 112 65 43 8 337 326 319 299 144 130 126 112 81 30 357 356 347 328 309 297 299 295 308 286 272 286 287 281 266 279 275 258 246 244 246 245 246 244
230 189 212 227 247 127 126 106 44 330 323 316 301 169 149 148 158 177 213 246 265 287 304 315 304 300 296 300 308 301 294 310 298 300 307 286 274 264 251 246 241 239 241
216 213 224 224 214 186 173 177 195 268 295 301 307 320 130 142 153 187 240 242 245 242 239 255 286 289 299 314 327 319 309 294 273 277 302 280 274 269 263 265 252 242 237
207 206 214 220 223 213 198 200 206 234 261 269 275 272 239 136 118 89 302 273 255 237 231 233 243 268 290 316 317 294 284 286 279 270 239 253 270 269 273 270 265 249 243
208 204 201 209 221 220 202 200 195 235 252 248 241 227 167 132 120 74 354 315 310 302 246 232 233 250 264 274 266 291 289 290 293 288 249 233 275 287 278 270 273 261 253
204 212 217 209 213 210 200 198 196 228 256 250 221 182 155 145 142 122 30 333 333 330 336 324 281 268 258 258 246 220 236 269 292 298 309 319 299 326 312 292 295 297 274
Height
1503 1502 1502 1501 1501 1501 1501 1501 1500 1501 1501 1502 1503 1504 1506 1508 1510 1512 1513 1515 1516 1517 1519 1520 1522 1524 1525 1527 1529 1531 1533 1535 1537 1539 1541 1543 1545 1547 1549 1550 1552 1553 1555
1502 1501 1501 1500 1500 1499 1499 1499 1499 1500 1500 1500 1501 1502 1504 1505 1507 1509 1511 1513 1514 1516 1517 1519 1520 1522 1524 1526 1528 1530 1532 1534 1536 1538 1540 1543 1545 1547 1549 1550 1552 1554 1555
1502 1501 1500 1499 1499 1498 1498 1498 1498 1498 1499 1499 1499 1501 1502 1503 1504 1507 1509 1511 1512 1514 1516 1517 1519 1521 1523 1524 1526 1529 1531 1533 1535 1538 1540 1542 1544 1546 1548 1550 1552 1554 1555
1501 1500 1499 1498 1498 1497 1497 1497 1497 1497 1497 1498 1498 1499 1500 1501 1502 1504 1507 1508 1510 1512 1514 1516 1518 1520 1521 1523 1525 1528 1530 1532 1534 1537 1539 1542 1544 1546 1548 1550 1552 1554 1555
1500 1499 1498 1498 1497 1497 1496 1496 1496 1496 1496 1496 1497 1498 1499 1500 1502 1503 1505 1506 1509 1510 1512 1514 1516 1518 1520 1522 1524 1527 1529 1531 1534 1536 1538 1541 1543 1545 1547 1549 1551 1553 1555
1499 1499 1498 1497 1496 1496 1495 1495 1495 1495 1495 1496 1496 1497 1498 1499 1500 1501 1503 1504 1507 1509 1510 1513 1515 1517 1519 1521 1523 1525 1528 1530 1532 1535 1537 1539 1542 1544 1546 1548 1550 1552 1554
1499 1498 1497 1497 1496 1495 1495 1494 1494 1494 1495 1495 1495 1496 1497 1498 1499 1500 1501 1503 1505 1507 1509 1512 1514 1516 1518 1520 1522 1524 1526 1529 1531 1533 1536 1538 1540 1542 1545 1547 1549 1551 1553
1499 1498 1497 1497 1496 1495 1494 1494 1494 1494 1494 1495 1495 1495 1497 1498 1498 1499 1501 1502 1504 1506 1508 1511 1512 1514 1516 1518 1520 1522 1525 1527 1529 1531 1534 1536 1538 1541 1543 1545 1547 1550 1552
1499 1498 1497 1497 1496 1495 1494 1494 1494 1494 1494 1495 1496 1497 1497 1497 1498 1499 1500 1501 1502 1504 1506 1508 1510 1513 1514 1516 1518 1520 1523 1525 1527 1529 1532 1534 1536 1539 1541 1543 1545 1547 1550
1499 1498 1497 1497 1496 1495 1495 1494 1494 1494 1495 1495 1496 1497 1498 1498 1499 1499 1500 1501 1502 1503 1505 1507 1508 1511 1512 1514 1516 1518 1521 1523 1525 1528 1530 1532 1534 1536 1538 1541 1543 1545 1547
1499 1498 1498 1497 1496 1496 1495 1495 1494 1494 1495 1495 1495 1496 1497 1498 1499 1499 1500 1501 1502 1503 1504 1505 1507 1509 1510 1512 1514 1516 1519 1521 1523 1525 1528 1530 1532 1534 1536 1538 1540 1542 1544
1500 1499 1498 1497 1496 1496 1495 1495 1495 1495 1495 1495 1496 1496 1497 1498 1498 1499 1500 1500 1501 1502 1503 1504 1506 1507 1508 1510 1512 1514 1516 1519 1521 1523 1525 1527 1529 1531 1533 1535 1537 1539 1541
1500 1499 1498 1497 1496 1496 1495 1495 1495 1495 1495 1495 1496 1496 1497 1497 1498 1499 1500 1500 1500 1501 1503 1503 1504 1506 1507 1508 1510 1512 1514 1516 1518 1520 1522 1524 1526 1528 1529 1531 1533 1535 1537
1500 1499 1498 1497 1497 1496 1496 1495 1495 1495 1495 1495 1496 1496 1497 1497 1498 1498 1499 1499 1500 1500 1501 1502 1503 1504 1506 1507 1508 1510 1511 1513 1515 1517 1519 1520 1522 1524 1526 1527 1529 1531 1533
1499 1498 1498 1497 1497 1496 1496 1495 1495 1495 1495 1495 1495 1495 1496 1496 1497 1497 1498 1499 1500 1500 1501 1502 1503 1503 1504 1505 1506 1507 1508 1509 1511 1513 1515 1516 1518 1519 1521 1523 1525 1527 1529
1498 1498 1498 1498 1497 1496 1496 1495 1495 1495 1495 1495 1495 1495 1495 1495 1496 1497 1497 1498 1499 1500 1500 1501 1502 1502 1503 1503 1504 1504 1505 1506 1507 1509 1510 1512 1513 1515 1516 1518 1520 1522 1523
1498 1498 1498 1497 1497 1497 1496 1496 1495 1495 1495 1495 1495 1495 1495 1495 1495 1496 1496 1497 1497 1498 1499 1499 1500 1501 1501 1502 1502 1502 1503 1503 1504 1505 1506 1507 1508 1510 1511 1513 1514 1516 1518
1497 1497 1497 1497 1497 1497 1496 1496 1495 1495 1494 1494 1495 1495 1495 1495 1495 1495 1495 1495 1496 1497 1497 1498 1498 1499 1499 1499 1499 1499 1500 1500 1500 1501 1502 1502 1503 1504 1506 1507 1509 1510 1512
1496 1497 1497 1497 1497 1496 1496 1495 1495 1495 1495 1495 1494 1494 1494 1494 1494 1494 1494 1494 1495 1495 1496 1496 1496 1496 1497 1497 1497 1497 1497 1497 1497 1497 1498 1498 1499 1499 1500 1501 1503 1504 1506
1495 1496 1496 1496 1496 1496 1495 1495 1495 1495 1494 1495 1494 1494 1494 1493 1493 1493 1493 1493 1493 1494 1494 1494 1494 1494 1494 1494 1494 1494 1494 1494 1494 1494 1494 1494 1495 1495 1496 1496 1497 1498 1499
1494 1494 1495 1495 1495 1495 1494 1494 1494 1494 1494 1494 1494 1494 1493 1493 1492 1492 1492 1492 1492 1492 1492 1492 1492 1492 1492 1492 1492 1491 1491 1491 1491 1491 1490 1490 1490 1490 1491 1491 1492 1492 1493
1492 1493 1493 1493 1493 1493 1493 1493 1492 1492 1492 1493 1493 1493 1492 1492 1492 1491 1491 1491 1491 1490 1490 1490 1490 1490 1490 1490 1489 1489 1489 1488 1487 1488 1487 1486 1486 1486 1486 1487 1487 1487 1488
1490 1490 1490 1491 1491 1491 1491 1491 1491 1491 1490 1491 1491 1492 1492 1491 1490 1490 1490 1490 1489 1489 1489 1489 1488 1488 1487 1487 1487 1486 1486 1485 1485 1485 1484 1482 1483 1482 1482 1482 1482 1482 1482
1487 1487 1488 1488 1488 1489 1489 1489 1489 1489 1489 1489 1490 1490 1490 1489 1489 1489 1488 1488 1488 1487 1487 1487 1486 1486 1485 1485 1484 1484 1483 1483 1482 1482 1481 1480 1479 1478 1478 1478 1477 1477 1477
1484 1484 1485 1485 1485 1486 1486 1486 1486 1486 1486 1487 1487 1487 1488 1487 1487 1487 1487 1486 1486 1485 1485 1485 1484 1484 1483 1483 1482 1481 1481 1480 1478 1478 1478 1477 1476 1475 1474 1473 1473 1473 1472
1480 1481 1481 1482 1482 1482 1482 1483 1483 1483 1483 1484 1485 1485 1485 1485 1485 1485 1484 1484 1483 1483 1483 1482 1482 1482 1481 1481 1480 1479 1479 1478 1477 1476 1475 1475 1473 1472 1470 1469 1469 1469 1468